Weather History for KBWD - November, 2012

Change the Weather History Date:

Sunday, November 25, 2012

  Actual Average (KABI) Record (KABI)
Temperature  
Mean Temperature 56 °F 51 °F  
Max Temperature 78 °F 62 °F 90 °F (1965)
Min Temperature 35 °F 39 °F 23 °F (1993)
Degree Days  
Heating Degree Days 8 15  
Month to date heating degree days 251  
Since 1 July heating degree days 355  
Cooling Degree Days 0 0  
Month to date cooling degree days 15  
Year to date cooling degree days 2404  
Growing Degree Days 6 (Base 50)    
Moisture  
Dew Point 38 °F    
Average Humidity 48    
Maximum Humidity 77    
Minimum Humidity 28    
Precipitation  
Precipitation 0.00 in 0.04 in 1.43 in (1986)
Month to date precipitation 1.22  
Year to date precipitation 23.40  
Sea Level Pressure  
Sea Level Pressure 29.96 in    
Wind  
Wind Speed 7 mph (South)    
Max Wind Speed 20 mph    
Max Gust Speed 25 mph    
Visibility 10 miles    
Events      
T = Trace of Precipitation, MM = Missing Value Source: NWS Daily Summary

Daily Weather History Graph

Daily Weather History Graph

Search for Another Location

Airport or City:

Trip Planner

Search our weather history database for the weather conditions in past years. The results will help you decide how hot, cold, wet, or windy it might be!

Date:

Astronomy

Nov. 25, 2012 Rise Set
Actual Time 7:13 AM CST 5:32 PM CST
Civil Twilight 6:47 AM CST 5:58 PM CST
Nautical Twilight 6:17 AM CST 6:28 PM CST
Astronomical Twilight 5:47 AM CST 6:58 PM CST
Moon 3:44 PM CST (11/25) 4:35 AM CST (11/25)
Length of Visible Light 11h 11m
Length of Day
10h 19m
Waxing Gibbous, 93% of the Moon is Illuminated
Nov 25
Waxing Gibbous
Nov 28
Full
Dec 6
Last Quarter
Dec 13
New
Dec 19
First Quarter

Hourly Weather History & Observations

Time (CST) Temp. Windchill Dew Point Humidity Pressure Visibility Wind Dir Wind Speed Gust Speed Precip Events Conditions
12:15 AM 48.2 °F - 24.8 °F 40% 30.08 in 10.0 mi SSE 8.1 mph - N/A   Clear
12:35 AM 48.2 °F - 24.8 °F 40% 30.08 in 10.0 mi South 6.9 mph - N/A   Clear
12:55 AM 48.2 °F - 24.8 °F 40% 30.07 in 10.0 mi SSE 8.1 mph - N/A   Clear
1:15 AM 48.2 °F - 26.6 °F 43% 30.07 in 10.0 mi SSE 6.9 mph - N/A   Clear
1:35 AM 46.4 °F 43.5 °F 26.6 °F 46% 30.06 in 10.0 mi SSE 5.8 mph - N/A   Clear
1:55 AM 46.4 °F 43.5 °F 26.6 °F 46% 30.06 in 10.0 mi SSE 5.8 mph - N/A   Clear
2:15 AM 46.4 °F 43.5 °F 26.6 °F 46% 30.05 in 10.0 mi SSE 5.8 mph - N/A   Clear
2:35 AM 46.4 °F 43.5 °F 28.4 °F 50% 30.04 in 10.0 mi SSE 5.8 mph - N/A   Clear
2:55 AM 44.6 °F 42.2 °F 28.4 °F 53% 30.04 in 10.0 mi SSE 4.6 mph - N/A   Clear
3:15 AM 44.6 °F 43.1 °F 28.4 °F 53% 30.04 in 10.0 mi SSE 3.5 mph - N/A   Clear
3:35 AM 44.6 °F - 28.4 °F 53% 30.03 in 10.0 mi Calm Calm - N/A   Clear
3:55 AM 42.8 °F - 26.6 °F 53% 30.03 in 10.0 mi Calm Calm - N/A   Clear
4:15 AM 41.0 °F - 26.6 °F 57% 30.02 in 10.0 mi Calm Calm - N/A   Clear
4:35 AM 37.4 °F - 26.6 °F 65% 30.02 in 10.0 mi Calm Calm - N/A   Clear
4:55 AM 37.4 °F 33.8 °F 26.6 °F 65% 30.01 in 10.0 mi SSE 4.6 mph - N/A   Clear
5:15 AM 39.2 °F - 28.4 °F 65% 30.01 in 10.0 mi Calm Calm - N/A   Clear
5:35 AM 37.4 °F - 24.8 °F 60% 30.01 in 10.0 mi Calm Calm - N/A   Clear
5:55 AM 37.4 °F - 26.6 °F 65% 30.01 in 10.0 mi Calm Calm - N/A   Clear
6:15 AM 37.4 °F - 26.6 °F 65% 30.01 in 10.0 mi Calm Calm - N/A   Clear
6:35 AM 39.2 °F - 26.6 °F 61% 30.01 in 10.0 mi Calm Calm - N/A   Clear
6:55 AM 37.4 °F - 26.6 °F 65% 30.01 in 10.0 mi Calm Calm - N/A   Clear
7:15 AM 35.6 °F - 24.8 °F 65% 30.02 in 10.0 mi Calm Calm - N/A   Clear
7:55 AM 41.0 °F - 28.4 °F 61% 30.02 in 10.0 mi Calm Calm - N/A   Clear
8:15 AM 44.6 °F - 30.2 °F 57% 30.02 in 10.0 mi Calm Calm - N/A   Clear
8:35 AM 48.2 °F - 32.0 °F 54% 30.03 in 10.0 mi SSE 8.1 mph - N/A   Clear
8:55 AM 53.6 °F - 33.8 °F 47% 30.02 in 10.0 mi South 8.1 mph - N/A   Clear
9:15 AM 55.4 °F - 35.6 °F 47% 30.02 in 10.0 mi SSW 8.1 mph - N/A   Clear
9:35 AM 57.2 °F - 37.4 °F 48% 30.02 in 10.0 mi SSW 12.7 mph - N/A   Clear
9:55 AM 60.8 °F - 39.2 °F 45% 30.02 in 10.0 mi SSW 12.7 mph - N/A   Clear
10:15 AM 62.6 °F - 39.2 °F 42% 30.01 in 10.0 mi SSW 18.4 mph 21.9 mph N/A   Clear
10:35 AM 64.4 °F - 39.2 °F 40% 30.00 in 10.0 mi SSW 12.7 mph - N/A   Clear
10:55 AM 66.2 °F - 41.0 °F 40% 30.00 in 10.0 mi South 13.8 mph 19.6 mph N/A   Clear
11:15 AM 68.0 °F - 41.0 °F 37% 29.98 in 10.0 mi South 12.7 mph 18.4 mph N/A   Clear
11:55 AM 73.4 °F - 44.6 °F 36% 29.96 in 10.0 mi SW 12.7 mph 20.7 mph N/A   Clear
12:15 PM 73.4 °F - 44.6 °F 36% 29.95 in 10.0 mi SW 16.1 mph 25.3 mph N/A   Clear
12:35 PM 75.2 °F - 44.6 °F 34% 29.93 in 10.0 mi SW 19.6 mph 25.3 mph N/A   Clear
12:55 PM 75.2 °F - 44.6 °F 34% 29.92 in 10.0 mi SSW 17.3 mph 25.3 mph N/A   Clear
1:15 PM 77.0 °F - 46.4 °F 34% 29.91 in 10.0 mi SW 17.3 mph 24.2 mph N/A   Clear
1:55 PM 77.0 °F - 46.4 °F 34% 29.88 in 10.0 mi SW 17.3 mph 23.0 mph N/A   Clear
2:15 PM 77.0 °F - 46.4 °F 34% 29.88 in 10.0 mi SW 19.6 mph 23.0 mph N/A   Clear
2:35 PM 78.8 °F - 46.4 °F 32% 29.87 in 10.0 mi SW 13.8 mph 23.0 mph N/A   Clear
2:55 PM 78.8 °F - 44.6 °F 30% 29.86 in 10.0 mi SSW 12.7 mph 20.7 mph N/A   Clear
3:15 PM 78.8 °F - 44.6 °F 30% 29.86 in 10.0 mi SW 15.0 mph 23.0 mph N/A   Clear
3:35 PM 78.8 °F - 44.6 °F 30% 29.86 in 10.0 mi South 13.8 mph 24.2 mph N/A   Clear
3:55 PM 78.8 °F - 44.6 °F 30% 29.86 in 10.0 mi SSW 13.8 mph 23.0 mph N/A   Clear
4:15 PM 78.8 °F - 42.8 °F 28% 29.86 in 10.0 mi SSW 15.0 mph 19.6 mph N/A   Clear
4:35 PM 77.0 °F - 42.8 °F 29% 29.86 in 10.0 mi SSW 13.8 mph 19.6 mph N/A   Clear
4:55 PM 77.0 °F - 42.8 °F 29% 29.85 in 10.0 mi SW 8.1 mph - N/A   Clear
5:15 PM 75.2 °F - 41.0 °F 29% 29.85 in 10.0 mi SSW 10.4 mph - N/A   Clear
5:35 PM 73.4 °F - 42.8 °F 33% 29.85 in 10.0 mi SSW 8.1 mph - N/A   Clear
5:55 PM 71.6 °F - 42.8 °F 35% 29.85 in 10.0 mi South 6.9 mph - N/A   Clear
6:15 PM 69.8 °F - 42.8 °F 38% 29.86 in 10.0 mi South 4.6 mph - N/A   Partly Cloudy
6:55 PM 68.0 °F - 44.6 °F 43% 29.87 in 10.0 mi South 5.8 mph - N/A   Clear
7:15 PM 68.0 °F - 46.4 °F 46% 29.87 in 10.0 mi South 10.4 mph - N/A   Clear
7:35 PM 68.0 °F - 48.2 °F 49% 29.88 in 10.0 mi South 10.4 mph 16.1 mph N/A   Clear
7:55 PM 68.0 °F - 48.2 °F 49% 29.88 in 10.0 mi South 11.5 mph 17.3 mph N/A   Clear
8:15 PM 66.2 °F - 48.2 °F 52% 29.88 in 10.0 mi South 12.7 mph - N/A   Clear
8:35 PM 66.2 °F - 48.2 °F 52% 29.88 in 10.0 mi South 11.5 mph - N/A   Clear
8:55 PM 66.2 °F - 48.2 °F 52% 29.89 in 10.0 mi South 11.5 mph - N/A   Clear
9:15 PM 64.4 °F - 48.2 °F 56% 29.89 in 10.0 mi South 11.5 mph - N/A   Clear
9:35 PM 64.4 °F - 48.2 °F 56% 29.90 in 10.0 mi South 10.4 mph - N/A   Clear
9:55 PM 62.6 °F - 48.2 °F 59% 29.91 in 10.0 mi South 8.1 mph - N/A   Clear
10:15 PM 62.6 °F - 50.0 °F 63% 29.91 in 10.0 mi North - - N/A   Clear
10:35 PM 62.6 °F - 50.0 °F 63% 29.91 in 10.0 mi North - - N/A   Clear
10:55 PM 60.8 °F - 50.0 °F 68% 29.91 in 10.0 mi North - - N/A   Clear
11:15 PM 59.0 °F - 50.0 °F 72% 29.91 in 10.0 mi North - - N/A   Clear
11:55 PM 55.4 °F - 48.2 °F 77% 29.92 in 10.0 mi North - - N/A   Clear